COSMOS 946

Satellite information

Favourite Embed

Satellite Type and Status

PAYLOADIN ORBIT

Key statistics

Satellite COSMOS 946 at a glance.

Uptime

17651

Days in orbit

Revolutions

≈ 12.4

Per day

Orbit

LEO

Low Earth Orbit

Inclination

74.0

Latest

Satellite identification and parameters

Extended collection of information and parameters for COSMOS 946.

Object identification

Identified? True

Debris? False

Object name: COSMOS 946

International designator: 1977-079H

Object number (NORAD): 10292

Object ID (CCSDS): 10292

Country: COMMONWEALTH OF INDEPENDENT STATES (CIS)

Current information (Y/N): Y

RCS size: MEDIUM

Orbital parameters

Period: 115.67 minutes

Inclination: 74.0258 deg

SMA: 7863.964 km

Apoapsis: 1510.655 km

Periapsis: 1461.003 km

RAAN: 62.3319 deg

Eccentricy: 0.00315691

Argument of periapsis: 294.0763 deg

Mean anomaly: 239.4013 deg

Mean motion: 12.44917261 rev/day

Mean motion (dot): 0.00000001 rev/day2

B* drag term: 0.00011527809 1/REarth

Two-line elements (TLE)

Creation date: Dec. 20, 2025, 3:40 a.m.

Reference frame: TEME

Reference center: EARTH

Epoch: Dec. 19, 2025, 11:01 p.m. UTC

TLE line 0: 0 COSMOS 946

TLE line 1: 1 10292U 77079H 25353.95912861 .00000001 00000-0 11528-3 0 9994

TLE line 2: 2 10292 74.0258 62.3319 0031569 294.0763 239.4013 12.44917261176598

Live tracking on map

Real-time ground track for satellite COSMOS 946.

In-orbit conjunctions

There are no conjunctions computed for COSMOS 946, at the moment. Check back to stay up to date, as we update our databases every day.

Go to all conjunctions

Associated space launch

High-resolution film-return Zenit reconnaissance satellite

COSMOS 946 was lifted into orbit during the mission ‘Soyuz U | Zenit-4MKM 4’, on board a Soyuz U space rocket.

The launch took place on Aug. 24, 1977, 2:29 p.m. from 43/4 (43R).

For more information about the launch, click the button.

Launch to space Soyuz U | Zenit-4MKM 4
Soyuz U | Zenit-4MKM 4

Agency: N/A

Status: Launch Successful

Launch date: Aug. 24, 1977, 2:29 p.m. UTC

Rocket: Soyuz U

Launch pad: 43/4 (43R)

Location: Plesetsk Cosmodrome, Russian Federation

...

Latest news about this satellite

There are no fresh news available about this satellite. Check back as we update our databases every day.


Newsletter sign-up

Weekly statistics, charts and insights to help you stay on top of the space industry.